Change the Weather History Date:

Wednesday, September 11, 2013

  Actual Average Record
Temperature  
Mean Temperature 82 °F -  
Max Temperature 87 °F 83 °F 94 °F (1983)
Min Temperature 78 °F 71 °F 65 °F (1990)
Cooling Degree Days 18    
Growing Degree Days 32 (Base 50)    
Moisture  
Dew Point 73 °F    
Average Humidity 73    
Maximum Humidity 83    
Minimum Humidity 58    
Precipitation  
Precipitation 0.03 in - - ()
Sea Level Pressure  
Sea Level Pressure 30.10 in    
Wind  
Wind Speed 10 mph (NE)    
Max Wind Speed 16 mph    
Max Gust Speed 26 mph    
Visibility 10 miles    
Events Rain , Thunderstorm    
Averages and records for this station are not official NWS values.
T = Trace of Precipitation, MM = Missing Value Source: NWS Daily Summary

Daily Weather History Graph

Daily Weather History Graph

Search for Another Location

Airport or City:

Trip Planner

Search our weather history database for the weather conditions in past years. The results will help you decide how hot, cold, wet, or windy it might be!

Date:

Astronomy

Sep. 11, 2013 Rise Set
Actual Time 7:07 AM EDT 7:35 PM EDT
Civil Twilight 6:43 AM EDT 7:59 PM EDT
Nautical Twilight 6:15 AM EDT 8:27 PM EDT
Astronomical Twilight 5:47 AM EDT 8:56 PM EDT
Moon 1:07 PM EDT (9/11) 11:58 PM EDT (9/11)
Length of Visible Light 13h 15m
Length of Day
12h 27m
Waxing Crescent, 38% of the Moon is Illuminated
Sep 11
Waxing Crescent
Sep 12
First Quarter
Sep 19
Full
Sep 26
Last Quarter
Oct 4
New

Hourly Weather History & Observations

Time (EDT) Temp. Heat Index Dew Point Humidity Pressure Visibility Wind Dir Wind Speed Gust Speed Precip Events Conditions
12:08 AM 82.4 °F 88.2 °F 73.4 °F 74% 30.12 in 10.0 mi East 11.5 mph - N/A   Mostly Cloudy
12:28 AM 82.4 °F 87.2 °F 71.6 °F 70% 30.12 in 10.0 mi East 11.5 mph - N/A   Scattered Clouds
12:58 AM 82.0 °F 87.4 °F 73.0 °F 74% 30.12 in 10.0 mi East 10.4 mph - N/A   Scattered Clouds
1:58 AM 81.0 °F 85.2 °F 72.0 °F 74% 30.11 in 10.0 mi ENE 8.1 mph - N/A   Clear
2:58 AM 81.0 °F 85.2 °F 72.0 °F 74% 30.10 in 10.0 mi ENE 6.9 mph - N/A   Partly Cloudy
3:58 AM 79.0 °F - 72.0 °F 79% 30.09 in 10.0 mi NNE 4.6 mph - N/A   Clear
4:58 AM 79.0 °F - 72.0 °F 79% 30.09 in 10.0 mi NE 6.9 mph - N/A   Scattered Clouds
5:58 AM 79.0 °F - 72.0 °F 79% 30.10 in 10.0 mi NE 6.9 mph - N/A   Scattered Clouds
6:58 AM 78.1 °F - 71.1 °F 79% 30.11 in 10.0 mi NE 8.1 mph - N/A   Clear
7:30 AM 80.6 °F 85.4 °F 73.4 °F 79% 30.12 in 10.0 mi NE 11.5 mph - N/A Thunderstorm Thunderstorm
7:45 AM 80.6 °F 84.6 °F 71.6 °F 74% 30.11 in 10.0 mi NNE 6.9 mph - N/A   Partly Cloudy
7:58 AM 81.0 °F 85.2 °F 72.0 °F 74% 30.12 in 10.0 mi NE 9.2 mph - N/A   Partly Cloudy
8:58 AM 81.0 °F 85.8 °F 73.0 °F 77% 30.12 in 10.0 mi NE 9.2 mph - N/A   Clear
9:58 AM 84.9 °F 91.4 °F 73.0 °F 67% 30.13 in 10.0 mi ENE 13.8 mph - N/A   Clear
10:58 AM 86.0 °F 93.0 °F 73.0 °F 65% 30.14 in 10.0 mi ENE 15.0 mph - N/A   Partly Cloudy
11:58 AM 86.0 °F 93.0 °F 73.0 °F 65% 30.13 in 10.0 mi ENE 15.0 mph - N/A   Scattered Clouds
12:46 PM 86.0 °F 93.4 °F 73.4 °F 66% 30.12 in 10.0 mi NE 11.5 mph - N/A   Mostly Cloudy
12:58 PM 86.0 °F 93.0 °F 73.0 °F 65% 30.12 in 10.0 mi ENE 12.7 mph - N/A   Mostly Cloudy
1:04 PM 87.8 °F 93.8 °F 71.6 °F 58% 30.12 in 10.0 mi NE 13.8 mph - N/A   Scattered Clouds
1:21 PM 86.0 °F 93.4 °F 73.4 °F 66% 30.12 in 10.0 mi ENE 12.7 mph - N/A Thunderstorm Partly Cloudy
1:38 PM 84.2 °F 89.6 °F 71.6 °F 66% 30.12 in 10.0 mi ENE 11.5 mph - N/A   Partly Cloudy
1:49 PM 84.2 °F 89.6 °F 71.6 °F 66% 30.12 in 10.0 mi NNE 10.4 mph - N/A Thunderstorm Scattered Clouds
1:58 PM 82.0 °F 86.3 °F 71.1 °F 69% 30.12 in 10.0 mi NNE 11.5 mph - N/A Thunderstorm Thunderstorm
2:13 PM 82.4 °F 87.2 °F 71.6 °F 70% 30.11 in 10.0 mi NE 11.5 mph - N/A Thunderstorm Scattered Clouds
2:38 PM 78.8 °F - 73.4 °F 83% 30.11 in 10.0 mi NW 5.8 mph - 0.00 in   Mostly Cloudy
2:58 PM 80.1 °F 84.5 °F 73.9 °F 81% 30.10 in 10.0 mi North 5.8 mph - 0.00 in   Partly Cloudy
3:30 PM 82.4 °F 89.5 °F 75.2 °F 79% 30.09 in 10.0 mi North 6.9 mph - N/A Thunderstorm Partly Cloudy
3:45 PM 84.2 °F 92.3 °F 75.2 °F 74% 30.09 in 10.0 mi NNE 9.2 mph - N/A   Partly Cloudy
3:58 PM 80.1 °F 83.6 °F 71.1 °F 74% 30.09 in 6.0 mi North 16.1 mph 26.5 mph 0.01 in Rain Light Rain
4:16 PM 78.8 °F - 73.4 °F 83% 30.08 in 10.0 mi NNE 8.1 mph 20.7 mph 0.02 in Rain , Thunderstorm Light Thunderstorms and Rain
4:32 PM 80.6 °F 83.9 °F 69.8 °F 70% 30.08 in 10.0 mi NNE 5.8 mph - 0.02 in   Mostly Cloudy
4:58 PM 84.0 °F 91.2 °F 73.9 °F 72% 30.08 in 10.0 mi NNE 10.4 mph - 0.02 in   Clear
5:58 PM 84.0 °F 90.2 °F 73.0 °F 69% 30.06 in 10.0 mi ENE 8.1 mph - N/A   Clear
6:58 PM 82.0 °F 86.7 °F 72.0 °F 71% 30.06 in 10.0 mi ENE 10.4 mph - N/A   Clear
7:58 PM 81.0 °F 85.8 °F 73.0 °F 77% 30.07 in 10.0 mi ENE 10.4 mph - N/A   Clear
8:58 PM 80.1 °F 84.2 °F 73.0 °F 79% 30.07 in 10.0 mi ENE 10.4 mph - N/A   Clear
9:58 PM 81.0 °F 85.2 °F 72.0 °F 74% 30.07 in 10.0 mi ENE 9.2 mph - N/A   Clear
10:58 PM 80.1 °F 84.2 °F 73.0 °F 79% 30.07 in 10.0 mi ENE 11.5 mph - N/A   Clear
11:58 PM 80.1 °F 84.5 °F 73.9 °F 81% 30.07 in 10.0 mi East 9.2 mph - N/A   Clear